Regional Weather Roundup
Issued by NWS

Home | Current Version | Previous Version | Graphics & Text | Print | Product List | Glossary On
Versions: 1 2 3 4 5 6 7 8 9 10 11 12 13 14 15 16 17 18 19 20 21 22 23 24 25 26 27 28 29 30 31 32 33 34 35 36 37 38 39 40 41 42 43 44 45 46 47 48 49 50
486
ASUS43 KLOT 280509
RWRIL

ILLINOIS REGIONAL WEATHER ROUNDUP
NATIONAL WEATHER SERVICE CHICAGO/ROMEOVILLE IL
1200 AM CDT FRI JUL 28 2017

NOTE: "FAIR" INDICATES FEW OR NO CLOUDS BELOW 12,000 FEET WITH NO
SIGNIFICANT WEATHER AND/OR OBSTRUCTIONS TO VISIBILITY.

* THESE STATIONS ARE NOT UNDER NWS QUALITY CONTROL. THEY ALSO MAY NOT
  REPORT WEATHER SUCH AS PRECIPITATION OR FOG.

ILZ001-002-007-009-015-016-024-280600-
NORTHWEST ILLINOIS

CITY           SKY/WX    TMP DP  RH WIND       PRES   REMARKS
MOLINE         CLEAR     67  64  90 CALM      29.97R
STERLING*      CLEAR     65  61  87 CALM      29.99R
SAVANNA*       CLEAR     66  58  75 NE7       30.00R
$$

ILZ003-004-008-010-011-017-018-280600-
NORTH CENTRAL ILLINOIS

CITY           SKY/WX    TMP DP  RH WIND       PRES   REMARKS
ROCKFORD       CLEAR     67  56  67 NE8       29.99S
FREEPORT*      CLEAR     64  56  76 CALM      30.02R
ROCHELLE*      CLEAR     65  57  75 NE8       29.98S
DE KALB*       CLEAR     62  56  81 N6        29.98S
PERU*          CLEAR     64  56  77 N5        29.97S
$$

ILZ005-006-012>014-019>023-280600-
NORTHEAST ILLINOIS

CITY           SKY/WX    TMP DP  RH WIND       PRES   REMARKS
CHICAGO-OHARE  PTCLDY    70  60  70 N9        29.94S
CHICAGO-MIDWAY PTCLDY    72  62  71 N12       29.93S
AURORA         CLEAR     63  57  81 N7        29.96S
LANSING*       CLEAR     70  64  80 N7        29.93R
JOLIET*        CLEAR     69  60  72 N8        29.94S
WAUKEGAN       CLEAR     69  62  78 N9        29.96R
DUPAGE AIRPORT CLEAR     61  57  87 N6        29.95S
KANKAKEE*      PTCLDY    68  63  83 N7        29.93R
WHEELING       CLEAR     69  63  81 N8        29.96S
MORRIS*        CLEAR     64  58  79 CALM      29.94S
ROMEOVILLE*    CLEAR     66  58  74 N9        29.94S
$$

LMZ740>746-280600-
SOUTHERN LAKE MICHIGAN

STATION/POSITION SKY/WX   TEMP    WIND        PRES    VSBY  WAVE
                          AIR SEA DIR/SP/G                  HT/PER
                          (F)     (DEG/KT/KT) (MB)    (MI)  (FT/S)
SOUTHERN BUOY              72 71   30/ 14/ 17 1013.5          4/ 6
WILMETTE HARBOR            72 72  360/ 12/ 16   N/A           5/ 6
HARRISON CRIB              73     360/ 14/ 15   N/A
BURNHAM HARBOR             71                   N/A
CALUMET HARBOR             71     330/  8/ 11 1013.0R
BURNS HARBOR               74      40/ 11/ 13 1013.5S
MICHIGAN CITY              72      30/ 11/ 13   N/A
MICHIGAN CITY 6N           74 74   50/ 10/ 14   N/A           5/ 6
ST. JOSEPH                 73 71   90/ 10/ 12 1012.8          4/ 6
$$

ILZ025>027-034>036-040-047-049-050-058-095>099-280600-
WEST-CENTRAL ILLINOIS

CITY           SKY/WX    TMP DP  RH WIND       PRES   REMARKS
QUINCY         CLOUDY    75  71  87 NE7       29.95R
GALESBURG*     CLEAR     65  61  85 NE5       29.98R
MACOMB*        PTCLDY    68  65  88 NE6       29.98S
JACKSONVILLE*  MOCLDY    74  69  84 N7        29.93R
PITTSFIELD*    CLOUDY    76  73  91 N7        29.94R
$$

ILZ028>032-037-038-041>044-048-051>054-059>061-280600-
CENTRAL ILLINOIS

CITY           SKY/WX    TMP DP  RH WIND       PRES   REMARKS
PONTIAC        CLOUDY    66  64  91 N6        29.95R
BLOOMINGTON    CLEAR     67  60  78 NE9       29.95R
DECATUR        PTCLDY    71  68  90 NE9       29.91S
PEORIA         CLEAR     71  61  70 NE7       29.95R
LACON*         CLEAR     66  57  73 CALM      29.95R
LINCOLN*       PTCLDY    71  69  92 N5        29.93S
SPRINGFIELD    PTCLDY    75  73  93 NE7       29.92R
TAYLORVILLE    MOCLDY    72  69  91 NE9       29.91R
$$

ILZ033-039-045-046-055>057-062-063-280600-
EAST-CENTRAL ILLINOIS

CITY           SKY/WX    TMP DP  RH WIND       PRES   REMARKS
CHAMPAIGN      PTCLDY    71  66  84 N9        29.91R
RANTOUL*       CLEAR     71  67  85 N8        29.91S
MATTOON        CLEAR     72  72 100 N8        29.89R FOG
PARIS*         CLOUDY    71  71  98 N7        29.90R FOG
$$

ILZ079-100>102-280600-
SOUTHWEST ILLINOIS

CITY           SKY/WX    TMP DP  RH WIND       PRES   REMARKS
ALTON          CLOUDY    74  74 100 NW3       29.89S
BELLEVILLE     MOCLDY    74  74  97 N6        29.88F
CAHOKIA*       CLOUDY    77  74  90 W3        29.88S
SPARTA*        CLOUDY    75  75  99 W3        29.88S
$$

ILZ064>066-069>071-074>076-080>082-084>086-088>090-092>094-280600-
SOUTH-CENTRAL ILLINOIS

CITY           SKY/WX    TMP DP  RH WIND       PRES   REMARKS
CARBONDALE     CLOUDY    78  76  93 CALM      29.86S HX  81
CAIRO*         CLOUDY    79  76  91 SW5       29.87S HX  83
EFFINGHAM*     CLOUDY    75  75 100 NW3       29.89S
MARION         CLOUDY    79  79 100 CALM      29.87S HX  83
MT. VERNON     CLOUDY    75  75 100 N3        29.87S
CENTRALIA*     CLOUDY    76  76 100 CALM      29.87S
SALEM*         CLOUDY    77  75  94 CALM      29.88R FOG
METROPOLIS*    CLOUDY    80  76  90 SW6       29.88S HX  85
$$

ILZ067-068-072-073-078-083-087-091-280600-
SOUTHEAST ILLINOIS

CITY           SKY/WX    TMP DP  RH WIND       PRES   REMARKS
LAWRENCEVILLE  CLOUDY    76  75  97 N3        29.86S
FLORA*         CLOUDY    78  75  91 NW6       29.87S HX  80
FAIRFIELD*     CLOUDY    76  76 100 CALM      29.85S FOG
HARRISBURG*    CLOUDY    77  76  99 CALM      29.86F
ROBINSON*      CLOUDY    74  74 100 CALM      29.87R FOG
CARMI*         CLOUDY    76  76  99 CALM      29.85S
$$

ABBREVIATIONS USED IN REMARKS
   TC - TEMPERATURE IN CELSIUS
  WCI - WIND CHILL INDEX
   HX - HEAT INDEX
  VSB - VISIBILITY
$$





USA.gov is the U.S. government's official web portal to all federal, state and local government web resources and services.